Terug naar catalogus

STARLINK-36921

ActiefCommunicatieSSO
NORAD 68019·PAYLOAD·🇺🇸 United States

Gelanceerd Mar 1, 2026 vanaf Vandenberg Space Force Base

Loading…

Volgende Passages (komende 24 uur)

TLE

VersSource: CelesTrak SupGP

Epoch: Sep 15, 2026, 03:54 UTC

1 68019C 26040E   26258.16298611  .00072136  00000+0  22396-2 0  2583
2 68019  97.2858 205.5294 0001834  87.8429  26.7138 15.33397435    17

Volg STARLINK-36921 in realtime met AllMySat

Download on the App Store